Regional Weather Roundup
Issued by NWS

Home | Current Version | Previous Version | Graphics & Text | Print | Product List | Glossary On
Versions: 1 2 3 4 5 6 7 8 9 10 11 12 13 14 15 16 17 18 19 20 21 22 23 24 25 26 27 28 29 30 31 32 33 34 35 36 37 38 39 40 41 42 43 44 45 46 47 48 49 50
000
ASUS43 KFSD 041702
RWRSD

WEATHER ROUNDUP FOR SOUTH DAKOTA
NATIONAL WEATHER SERVICE SIOUX FALLS SD
1200 PM CDT FRI SEP 04 2015

NOTE: "FAIR" INDICATES FEW OR NO CLOUDS BELOW 12,000 FEET WITH NO
SIGNIFICANT WEATHER AND/OR OBSTRUCTIONS TO VISIBILITY.


SDZ001>005-009-010-012>017-041800-
NORTHWEST AND NORTH CENTRAL SOUTH DAKOTA

CITY           SKY/WX    TMP DP  RH WIND       PRES   REMARKS
BUFFALO          N/A     74  61  63 N7        29.78F
FAITH            N/A     87  53  31 S13       29.78F
MOBRIDGE       PTSUNNY   79  69  71 CALM      29.78R
$$

SDZ012>016-024>037-041>051-057-063-072>074-041800-
SOUTHWEST AND SOUTH CENTRAL SOUTH DAKOTA

CITY           SKY/WX    TMP DP  RH WIND       PRES   REMARKS
RAPID CTY ARPT SUNNY     81  56  42 VRB3      29.83S
PIERRE         SUNNY     82  66  58 SE10      29.76S
CUSTER         SUNNY     81  45  28 VRB6      29.98S
PHILIP         SUNNY     85  61  44 E5        29.78S
PINE RIDGE     SUNNY     85  53  33 VRB5      29.85S
WINNER         FAIR      84  64  50 S13       29.79S
$$

SDZ004>011-016>023-039-040-041800-
NORTHEAST SOUTH DAKOTA

CITY           SKY/WX    TMP DP  RH WIND       PRES   REMARKS
ABERDEEN       CLOUDY    74  68  81 S8        29.82S
WATERTOWN      LGT RAIN  70  66  87 S8        29.86R
BROOKINGS      CLOUDY   N/A N/A N/A CALM      29.88F
$$

SDZ017-020-022-023-036>040-048>070-041800-
SOUTHEAST SOUTH DAKOTA

CITY           SKY/WX    TMP DP  RH WIND       PRES   REMARKS
SIOUX FALLS    CLOUDY    76  67  73 S10       29.87R
HURON          PTSUNNY   80  71  74 SE9       29.80F
CHAMBERLAIN    SUNNY     80  69  69 S13       29.79R
MITCHELL       PTSUNNY   84  67  56 S13G20    29.80F
YANKTON        CLOUDY    79  66  65 S10       29.83F
$$

ABBREVIATIONS USED IN REMARKS
   TC - TEMPERATURE IN CELSIUS
  WCI - WIND CHILL INDEX
   HX - HEAT INDEX
  VSB - VISIBILITY




USA.gov is the U.S. government's official web portal to all federal, state and local government web resources and services.